EWG83A LHBP-EDDH

Flight info

Callsign EWG83A
Flight time 1h 37m
Altitude 36000
Route BADOV DCT MAVOR DCT KATQA DCT HDO M748 RENDO DCT BOLBO M748 ESIKA DCT SOGMA M748 RARUP RARUP6A
Aircraft A320/M-SDE2E3FGIJ1RWXY/HB1

Departure

Time 2026-05-07 22:51
Airport Budapest Liszt Ferenc International Airport (LHBP)

Arrival

Time 2026-05-08 00:28
Airport Hamburg Helmut Schmidt Airport (EDDH)
Time Latitude Longitude Altitude Speed Heading
2026-05-07 22:11 47.43362 19.25839 456 ft 0 kts 222°
2026-05-07 22:43 47.43370 19.25850 456 ft 4 kts 223°
2026-05-07 22:43 47.43389 19.25878 457 ft 4 kts 229°
2026-05-07 22:43 47.43406 19.25910 456 ft 4 kts 242°
2026-05-07 22:43 47.43413 19.25943 454 ft 4 kts 290°
2026-05-07 22:44 47.43409 19.25954 454 ft 0 kts 312°
2026-05-07 22:46 47.43418 19.25939 455 ft 9 kts 312°
2026-05-07 22:46 47.43474 19.25845 457 ft 12 kts 306°
2026-05-07 22:46 47.43523 19.25749 457 ft 11 kts 311°
2026-05-07 22:47 47.43581 19.25713 457 ft 10 kts 15°
2026-05-07 22:47 47.43638 19.25780 457 ft 10 kts 41°
2026-05-07 22:47 47.43684 19.25841 457 ft 8 kts 41°
2026-05-07 22:47 47.43734 19.25908 457 ft 10 kts 42°
2026-05-07 22:48 47.43789 19.25982 457 ft 14 kts 43°
2026-05-07 22:48 47.43863 19.26083 458 ft 15 kts 42°
2026-05-07 22:48 47.43946 19.26148 458 ft 14 kts 347°
2026-05-07 22:48 47.44020 19.26034 458 ft 18 kts 313°
2026-05-07 22:49 47.44111 19.25892 458 ft 20 kts 313°
2026-05-07 22:49 47.44209 19.25736 458 ft 21 kts 313°
2026-05-07 22:49 47.44314 19.25580 458 ft 21 kts 327°
2026-05-07 22:49 47.44453 19.25585 462 ft 20 kts 33°
2026-05-07 22:50 47.44507 19.25715 476 ft 10 kts 75°
2026-05-07 22:50 47.44512 19.25801 476 ft 10 kts 107°
2026-05-07 22:50 47.44495 19.25836 474 ft 0 kts 132°
2026-05-07 22:50 47.44404 19.25984 470 ft 54 kts 132°
2026-05-07 22:51 47.43990 19.26649 470 ft 118 kts 133°
2026-05-07 22:51 47.43315 19.27719 518 ft 162 kts 133°
2026-05-07 22:51 47.42481 19.29033 754 ft 186 kts 133°
2026-05-07 22:51 47.41553 19.30526 1101 ft 210 kts 128°
2026-05-07 22:52 47.40726 19.32450 1581 ft 233 kts 119°
2026-05-07 22:52 47.39969 19.34624 2300 ft 242 kts 117°
2026-05-07 22:52 47.39207 19.36882 3091 ft 249 kts 117°
2026-05-07 22:52 47.38441 19.39199 3886 ft 257 kts 111°
2026-05-07 22:53 47.38290 19.41868 4411 ft 271 kts 73°
2026-05-07 22:53 47.39175 19.44266 5252 ft 272 kts 47°
2026-05-07 22:53 47.40531 19.46222 6134 ft 274 kts 39°
2026-05-07 22:53 47.42042 19.48038 6971 ft 279 kts 37°
2026-05-07 22:54 47.43546 19.49836 7743 ft 285 kts 38°
2026-05-07 22:54 47.45067 19.51758 8514 ft 291 kts 40°
2026-05-07 22:54 47.46585 19.53797 9233 ft 299 kts 42°
2026-05-07 22:54 47.48105 19.55943 10018 ft 304 kts 43°
2026-05-07 22:55 47.49643 19.58184 10478 ft 321 kts 44°
2026-05-07 22:55 47.51280 19.60606 10718 ft 344 kts 44°
2026-05-07 22:55 47.52999 19.63169 11252 ft 355 kts 45°
2026-05-07 22:55 47.54886 19.65544 11900 ft 360 kts 30°
2026-05-07 22:56 47.57211 19.66897 12557 ft 361 kts
2026-05-07 22:56 47.59711 19.66987 13230 ft 360 kts 347°
2026-05-07 22:56 47.62069 19.65826 13854 ft 358 kts 326°
2026-05-07 22:56 47.64001 19.63559 14461 ft 354 kts 309°
2026-05-07 22:57 47.65661 19.60855 15124 ft 356 kts 308°
2026-05-07 22:57 47.67339 19.58137 15737 ft 355 kts 308°
2026-05-07 22:57 47.68975 19.55517 16014 ft 338 kts 308°
2026-05-07 22:57 47.70566 19.52979 16072 ft 336 kts 308°
2026-05-07 22:58 47.72159 19.50423 16612 ft 338 kts 308°
2026-05-07 22:58 47.73759 19.47846 17275 ft 341 kts 307°
2026-05-07 22:58 47.75373 19.45236 17884 ft 345 kts 307°
2026-05-07 22:58 47.77002 19.42591 18449 ft 349 kts 307°
2026-05-07 22:59 47.78651 19.39910 18974 ft 353 kts 307°
2026-05-07 22:59 47.80316 19.37210 19513 ft 355 kts 307°
2026-05-07 22:59 47.81994 19.34490 20058 ft 358 kts 307°
2026-05-07 22:59 47.83684 19.31753 20662 ft 360 kts 307°
2026-05-07 23:00 47.85381 19.28997 21227 ft 362 kts 306°
2026-05-07 23:00 47.87084 19.26224 21757 ft 365 kts 306°
2026-05-07 23:00 47.88807 19.23416 22280 ft 369 kts 306°
2026-05-07 23:00 47.90546 19.20578 22766 ft 373 kts 306°
2026-05-07 23:01 47.92304 19.17704 23239 ft 377 kts 306°
2026-05-07 23:01 47.94080 19.14800 23709 ft 381 kts 306°
2026-05-07 23:01 47.95720 19.11721 24118 ft 378 kts 297°
2026-05-07 23:01 47.96985 19.08323 24549 ft 373 kts 287°
2026-05-07 23:02 47.97859 19.04705 24987 ft 368 kts 279°
2026-05-07 23:02 47.98533 19.01017 25415 ft 370 kts 279°
2026-05-07 23:02 47.99215 18.97299 25876 ft 372 kts 279°
2026-05-07 23:02 47.99903 18.93564 26306 ft 375 kts 279°
2026-05-07 23:03 48.00596 18.89811 26711 ft 376 kts 279°
2026-05-07 23:03 48.01347 18.86044 27126 ft 382 kts 284°
2026-05-07 23:03 48.02445 18.82386 27526 ft 390 kts 292°
2026-05-07 23:03 48.03933 18.78949 27921 ft 399 kts 301°
2026-05-07 23:04 48.05795 18.75807 28330 ft 407 kts 307°
2026-05-07 23:04 48.07763 18.72753 28708 ft 409 kts 307°
2026-05-07 23:04 48.09708 18.69718 29069 ft 411 kts 307°
2026-05-07 23:04 48.11685 18.66624 29442 ft 413 kts 307°
2026-05-07 23:05 48.13674 18.63499 29884 ft 414 kts 308°
2026-05-07 23:05 48.15661 18.60383 30315 ft 413 kts 308°
2026-05-07 23:05 48.17534 18.57447 30621 ft 414 kts 308°
2026-05-07 23:05 48.19527 18.54318 30931 ft 416 kts 308°
2026-05-07 23:06 48.21525 18.51170 31230 ft 418 kts 308°
2026-05-07 23:06 48.23529 18.48001 31525 ft 420 kts 308°
2026-05-07 23:06 48.25541 18.44815 31814 ft 422 kts 308°
2026-05-07 23:06 48.27568 18.41602 32036 ft 426 kts 308°
2026-05-07 23:07 48.29612 18.38361 32307 ft 428 kts 308°
2026-05-07 23:07 48.31665 18.35105 32592 ft 430 kts 308°
2026-05-07 23:07 48.33727 18.31833 32916 ft 432 kts 308°
2026-05-07 23:07 48.35791 18.28554 33239 ft 433 kts 308°
2026-05-07 23:08 48.37860 18.25260 33524 ft 434 kts 308°
2026-05-07 23:08 48.39939 18.21944 33792 ft 436 kts 308°
2026-05-07 23:08 48.42023 18.18617 34031 ft 438 kts 308°
2026-05-07 23:08 48.44123 18.15267 34247 ft 440 kts 308°
2026-05-07 23:09 48.46226 18.11909 34445 ft 442 kts 308°
2026-05-07 23:09 48.48336 18.08531 34651 ft 443 kts 308°
2026-05-07 23:09 48.50451 18.05136 34850 ft 444 kts 308°
2026-05-07 23:09 48.52561 18.01745 35122 ft 443 kts 308°
2026-05-07 23:10 48.54667 17.98353 35425 ft 442 kts 309°
2026-05-07 23:10 48.56770 17.94965 35665 ft 443 kts 309°
2026-05-07 23:10 48.58879 17.91568 35865 ft 443 kts 309°
2026-05-07 23:10 48.60992 17.88163 35999 ft 444 kts 309°
2026-05-07 23:11 48.63102 17.84755 36037 ft 444 kts 309°
2026-05-07 23:11 48.67312 17.77934 36031 ft 444 kts 309°
2026-05-07 23:12 48.71518 17.71094 36046 ft 444 kts 309°
2026-05-07 23:12 48.75715 17.64261 36038 ft 442 kts 309°
2026-05-07 23:13 48.79892 17.57437 36039 ft 441 kts 309°
2026-05-07 23:13 48.84099 17.50651 36041 ft 442 kts 311°
2026-05-07 23:14 48.88505 17.44107 36042 ft 445 kts 313°
2026-05-07 23:14 48.92998 17.37612 36041 ft 446 kts 312°
2026-05-07 23:15 48.97453 17.31049 36041 ft 446 kts 311°
2026-05-07 23:15 49.01866 17.24426 36038 ft 445 kts 311°
2026-05-07 23:16 49.06344 17.17878 36037 ft 446 kts 313°
2026-05-07 23:16 49.10905 17.11443 36035 ft 447 kts 313°
2026-05-07 23:17 49.15433 17.05045 36044 ft 447 kts 313°
2026-05-07 23:17 49.19977 16.98559 36036 ft 447 kts 313°
2026-05-07 23:18 49.24503 16.92038 36038 ft 447 kts 313°
2026-05-07 23:18 49.29018 16.85494 36043 ft 447 kts 313°
2026-05-07 23:19 49.33536 16.78953 36043 ft 447 kts 313°
2026-05-07 23:19 49.38058 16.72412 36046 ft 447 kts 313°
2026-05-07 23:20 49.42561 16.65873 36053 ft 444 kts 313°
2026-05-07 23:20 49.47046 16.59333 36042 ft 445 kts 313°
2026-05-07 23:21 49.51547 16.52765 36057 ft 446 kts 313°
2026-05-07 23:21 49.56041 16.46185 36049 ft 446 kts 313°
2026-05-07 23:22 49.60528 16.39593 36053 ft 446 kts 313°
2026-05-07 23:22 49.65010 16.32986 36062 ft 444 kts 313°
2026-05-07 23:23 49.69474 16.26392 36053 ft 444 kts 313°
2026-05-07 23:23 49.73938 16.19788 36068 ft 444 kts 313°
2026-05-07 23:24 49.78401 16.13159 36062 ft 445 kts 313°
2026-05-07 23:24 49.82871 16.06508 36062 ft 446 kts 313°
2026-05-07 23:25 49.87294 15.99894 36061 ft 443 kts 313°
2026-05-07 23:25 49.91728 15.93252 36062 ft 443 kts 313°
2026-05-07 23:26 49.96157 15.86612 36083 ft 443 kts 313°
2026-05-07 23:26 50.00582 15.79947 36085 ft 443 kts 313°
2026-05-07 23:27 50.07213 15.69945 36097 ft 442 kts 313°
2026-05-07 23:27 50.11612 15.63291 36082 ft 440 kts 313°
2026-05-07 23:28 50.15994 15.56631 36078 ft 440 kts 313°
2026-05-07 23:28 50.20367 15.49959 36073 ft 440 kts 313°
2026-05-07 23:29 50.24735 15.43277 36069 ft 439 kts 313°
2026-05-07 23:29 50.28363 15.37722 36070 ft 439 kts 313°
2026-05-07 23:30 50.32725 15.31038 36073 ft 439 kts 313°
2026-05-07 23:30 50.37081 15.24338 36073 ft 439 kts 313°
2026-05-07 23:31 50.41431 15.17616 36074 ft 439 kts 313°
2026-05-07 23:31 50.45775 15.10885 36079 ft 439 kts 313°
2026-05-07 23:32 50.50128 15.04135 36073 ft 439 kts 313°
2026-05-07 23:32 50.54463 14.97385 36086 ft 438 kts 313°
2026-05-07 23:33 50.58787 14.90631 36089 ft 438 kts 313°
2026-05-07 23:33 50.63084 14.83920 36106 ft 438 kts 313°
2026-05-07 23:34 50.67410 14.77134 36092 ft 439 kts 313°
2026-05-07 23:34 50.71741 14.70319 36103 ft 440 kts 313°
2026-05-07 23:35 50.76063 14.63491 36102 ft 439 kts 313°
2026-05-07 23:35 50.80377 14.56680 36109 ft 438 kts 313°
2026-05-07 23:36 50.84681 14.49858 36111 ft 438 kts 313°
2026-05-07 23:36 50.88976 14.43020 36111 ft 438 kts 313°
2026-05-07 23:37 50.93278 14.36174 36117 ft 439 kts 314°
2026-05-07 23:37 50.97824 14.29667 36114 ft 441 kts 317°
2026-05-07 23:38 51.02521 14.23425 36116 ft 440 kts 318°
2026-05-07 23:38 51.07159 14.17199 36117 ft 439 kts 317°
2026-05-07 23:39 51.11775 14.10835 36116 ft 439 kts 317°
2026-05-07 23:39 51.16368 14.04429 36113 ft 439 kts 317°
2026-05-07 23:40 51.20960 13.98025 36119 ft 439 kts 317°
2026-05-07 23:40 51.25565 13.91607 36114 ft 440 kts 317°
2026-05-07 23:41 51.30170 13.85171 36116 ft 440 kts 317°
2026-05-07 23:41 51.34770 13.78728 36131 ft 440 kts 317°
2026-05-07 23:42 51.39372 13.72265 36128 ft 440 kts 317°
2026-05-07 23:42 51.43960 13.65792 36128 ft 440 kts 317°
2026-05-07 23:43 51.48548 13.59301 36130 ft 440 kts 317°
2026-05-07 23:43 51.53136 13.52798 36135 ft 439 kts 317°
2026-05-07 23:44 51.57708 13.46293 36130 ft 438 kts 317°
2026-05-07 23:44 51.62269 13.39789 36140 ft 438 kts 317°
2026-05-07 23:45 51.66828 13.33283 36140 ft 438 kts 317°
2026-05-07 23:45 51.71387 13.26760 36138 ft 438 kts 317°
2026-05-07 23:46 51.75903 13.20259 36145 ft 438 kts 316°
2026-05-07 23:46 51.80441 13.13710 36139 ft 438 kts 317°
2026-05-07 23:47 51.84984 13.07147 36144 ft 438 kts 317°
2026-05-07 23:47 51.89516 13.00571 36146 ft 438 kts 317°
2026-05-07 23:48 51.94044 12.93969 36146 ft 438 kts 317°
2026-05-07 23:48 51.98570 12.87368 36145 ft 438 kts 317°
2026-05-07 23:49 52.03105 12.80759 36145 ft 437 kts 317°
2026-05-07 23:49 52.07618 12.74160 36156 ft 436 kts 317°
2026-05-07 23:50 52.12124 12.67525 36147 ft 437 kts 316°
2026-05-07 23:50 52.16623 12.60875 36149 ft 437 kts 316°
2026-05-07 23:51 52.21131 12.54220 36152 ft 437 kts 316°
2026-05-07 23:51 52.25626 12.47548 36152 ft 437 kts 316°
2026-05-07 23:52 52.30113 12.40855 36150 ft 436 kts 316°
2026-05-07 23:52 52.34595 12.34170 36152 ft 436 kts 316°
2026-05-07 23:53 52.39076 12.27485 36156 ft 436 kts 316°
2026-05-07 23:53 52.43554 12.20766 36160 ft 437 kts 316°
2026-05-07 23:54 52.48029 12.14030 36161 ft 437 kts 316°
2026-05-07 23:54 52.52493 12.07276 36160 ft 437 kts 316°
2026-05-07 23:55 52.56958 12.00526 36163 ft 435 kts 316°
2026-05-07 23:55 52.61399 11.93799 35089 ft 444 kts 317°
2026-05-07 23:56 52.63711 11.90354 34214 ft 450 kts 321°
2026-05-07 23:56 52.66179 11.87214 33492 ft 447 kts 322°
2026-05-07 23:56 52.68642 11.84105 32811 ft 444 kts 322°
2026-05-07 23:56 52.71084 11.81015 32196 ft 440 kts 322°
2026-05-07 23:57 52.73497 11.77957 31606 ft 435 kts 322°
2026-05-07 23:57 52.75886 11.74924 31025 ft 431 kts 322°
2026-05-07 23:57 52.78249 11.71920 30460 ft 427 kts 322°
2026-05-07 23:57 52.80588 11.68943 29865 ft 423 kts 322°
2026-05-07 23:58 52.82904 11.65989 29221 ft 418 kts 321°
2026-05-07 23:58 52.85206 11.63051 28542 ft 416 kts 321°
2026-05-07 23:58 52.87477 11.60150 28065 ft 409 kts 321°
2026-05-07 23:58 52.89715 11.57285 27603 ft 403 kts 321°
2026-05-07 23:59 52.91913 11.54465 27138 ft 397 kts 321°
2026-05-07 23:59 52.94083 11.51676 26684 ft 392 kts 321°
2026-05-07 23:59 52.96217 11.48930 26240 ft 386 kts 321°
2026-05-07 23:59 52.98326 11.46217 25802 ft 381 kts 321°
2026-05-08 00:00 53.00413 11.43534 25361 ft 377 kts 321°
2026-05-08 00:00 53.02475 11.40879 24914 ft 373 kts 321°
2026-05-08 00:00 53.04516 11.38250 24463 ft 370 kts 321°
2026-05-08 00:00 53.06542 11.35641 24014 ft 367 kts 321°
2026-05-08 00:01 53.08556 11.33049 23512 ft 365 kts 321°
2026-05-08 00:01 53.10559 11.30472 23035 ft 362 kts 321°
2026-05-08 00:01 53.12544 11.27933 22580 ft 358 kts 322°
2026-05-08 00:01 53.14553 11.25505 22125 ft 356 kts 323°
2026-05-08 00:02 53.16586 11.23166 21667 ft 354 kts 324°
2026-05-08 00:02 53.18617 11.20874 21229 ft 351 kts 324°
2026-05-08 00:02 53.20634 11.18603 20793 ft 349 kts 324°
2026-05-08 00:02 53.22642 11.16331 20349 ft 348 kts 324°
2026-05-08 00:03 53.24631 11.14051 19910 ft 346 kts 324°
2026-05-08 00:03 53.26604 11.11768 19464 ft 345 kts 324°
2026-05-08 00:03 53.28569 11.09488 19039 ft 343 kts 324°
2026-05-08 00:03 53.30527 11.07210 18609 ft 342 kts 324°
2026-05-08 00:04 53.32473 11.04938 18144 ft 341 kts 324°
2026-05-08 00:04 53.34409 11.02677 17719 ft 338 kts 324°
2026-05-08 00:04 53.36333 11.00432 17299 ft 336 kts 324°
2026-05-08 00:04 53.38241 10.98211 16884 ft 333 kts 324°
2026-05-08 00:05 53.40143 10.95996 16480 ft 332 kts 324°
2026-05-08 00:05 53.42030 10.93793 16072 ft 330 kts 324°
2026-05-08 00:05 53.43908 10.91594 15673 ft 329 kts 324°
2026-05-08 00:05 53.45777 10.89401 15262 ft 327 kts 324°
2026-05-08 00:06 53.47617 10.87242 14875 ft 326 kts 325°
2026-05-08 00:06 53.49497 10.85035 14471 ft 326 kts 325°
2026-05-08 00:06 53.51353 10.82853 14073 ft 325 kts 325°
2026-05-08 00:06 53.53202 10.80676 13636 ft 324 kts 325°
2026-05-08 00:07 53.55043 10.78507 13232 ft 322 kts 325°
2026-05-08 00:07 53.56848 10.76380 12835 ft 320 kts 325°
2026-05-08 00:07 53.58666 10.74233 12427 ft 318 kts 325°
2026-05-08 00:07 53.60471 10.72099 12023 ft 317 kts 325°
2026-05-08 00:08 53.62270 10.69965 11613 ft 315 kts 325°
2026-05-08 00:08 53.64048 10.67819 11204 ft 314 kts 321°
2026-05-08 00:08 53.65636 10.65339 11001 ft 308 kts 316°
2026-05-08 00:08 53.67178 10.62849 10872 ft 306 kts 316°
2026-05-08 00:09 53.68717 10.60383 10714 ft 305 kts 316°
2026-05-08 00:09 53.70257 10.57918 10555 ft 305 kts 317°
2026-05-08 00:09 53.71794 10.55458 10395 ft 304 kts 317°
2026-05-08 00:09 53.73308 10.53029 10224 ft 296 kts 316°
2026-05-08 00:10 53.74785 10.50654 10027 ft 289 kts 317°
2026-05-08 00:10 53.76242 10.48308 9942 ft 290 kts 317°
2026-05-08 00:10 53.77697 10.45954 9795 ft 289 kts 316°
2026-05-08 00:10 53.79146 10.43599 9646 ft 289 kts 316°
2026-05-08 00:11 53.80593 10.41244 9491 ft 288 kts 316°
2026-05-08 00:11 53.82036 10.38893 9336 ft 288 kts 316°
2026-05-08 00:11 53.83478 10.36540 9174 ft 288 kts 316°
2026-05-08 00:11 53.84916 10.34193 9035 ft 287 kts 316°
2026-05-08 00:12 53.86343 10.31871 8876 ft 279 kts 316°
2026-05-08 00:12 53.87716 10.29634 8737 ft 268 kts 315°
2026-05-08 00:12 53.88804 10.27154 8594 ft 258 kts 296°
2026-05-08 00:12 53.89323 10.24302 8439 ft 250 kts 276°
2026-05-08 00:13 53.89332 10.21353 8375 ft 251 kts 266°
2026-05-08 00:13 53.89253 10.18391 8263 ft 252 kts 267°
2026-05-08 00:13 53.89180 10.15427 8135 ft 251 kts 267°
2026-05-08 00:13 53.89107 10.12473 8008 ft 251 kts 267°
2026-05-08 00:14 53.89034 10.09559 7879 ft 251 kts 267°
2026-05-08 00:14 53.88960 10.06607 7732 ft 250 kts 267°
2026-05-08 00:14 53.88886 10.03665 7622 ft 250 kts 267°
2026-05-08 00:14 53.88812 10.00722 7494 ft 250 kts 267°
2026-05-08 00:15 53.88746 9.97782 7357 ft 249 kts 270°
2026-05-08 00:15 53.89070 9.94914 7236 ft 249 kts 293°
2026-05-08 00:15 53.90001 9.92469 7108 ft 248 kts 316°
2026-05-08 00:15 53.91385 9.90780 6978 ft 245 kts 335°
2026-05-08 00:16 53.92910 9.89472 6843 ft 246 kts 334°
2026-05-08 00:16 53.94432 9.88148 6717 ft 246 kts 334°
2026-05-08 00:16 53.95948 9.86819 6591 ft 245 kts 334°
2026-05-08 00:16 53.97462 9.85491 6466 ft 245 kts 334°
2026-05-08 00:17 53.98975 9.84166 6339 ft 245 kts 334°
2026-05-08 00:17 54.00488 9.82840 6217 ft 244 kts 334°
2026-05-08 00:17 54.01998 9.81513 6080 ft 244 kts 334°
2026-05-08 00:17 54.03507 9.80180 5826 ft 243 kts 333°
2026-05-08 00:18 54.04771 9.78304 5656 ft 245 kts 302°
2026-05-08 00:18 54.05289 9.75589 5518 ft 244 kts 270°
2026-05-08 00:18 54.04904 9.72832 5362 ft 240 kts 237°
2026-05-08 00:18 54.03986 9.70464 5209 ft 241 kts 236°
2026-05-08 00:19 54.02997 9.68241 5074 ft 230 kts 217°
2026-05-08 00:19 54.01607 9.67088 4936 ft 221 kts 185°
2026-05-08 00:19 54.00606 9.67092 4848 ft 217 kts 165°
2026-05-08 00:19 53.99226 9.68036 4721 ft 214 kts 150°
2026-05-08 00:20 53.97901 9.69200 4596 ft 214 kts 150°
2026-05-08 00:20 53.96577 9.70364 4480 ft 214 kts 150°
2026-05-08 00:20 53.95253 9.71528 4379 ft 214 kts 150°
2026-05-08 00:20 53.93930 9.72680 4271 ft 214 kts 150°
2026-05-08 00:21 53.92605 9.73835 4161 ft 214 kts 150°
2026-05-08 00:21 53.91287 9.74991 4056 ft 213 kts 150°
2026-05-08 00:21 53.89973 9.76143 3947 ft 210 kts 150°
2026-05-08 00:21 53.88701 9.77258 3837 ft 202 kts 150°
2026-05-08 00:22 53.87477 9.78330 3730 ft 194 kts 150°
2026-05-08 00:22 53.86275 9.79384 3640 ft 201 kts 150°
2026-05-08 00:22 53.85053 9.80452 3551 ft 191 kts 150°
2026-05-08 00:22 53.83919 9.81442 3434 ft 175 kts 149°
2026-05-08 00:23 53.82888 9.82340 3333 ft 158 kts 149°
2026-05-08 00:23 53.81943 9.83167 3253 ft 151 kts 149°
2026-05-08 00:23 53.80948 9.84041 3192 ft 167 kts 149°
2026-05-08 00:23 53.79904 9.84951 3096 ft 169 kts 149°
2026-05-08 00:24 53.78859 9.85862 3063 ft 169 kts 149°
2026-05-08 00:24 53.77848 9.86741 2840 ft 154 kts 149°
2026-05-08 00:24 53.76938 9.87532 2641 ft 142 kts 149°
2026-05-08 00:24 53.76074 9.88285 2463 ft 138 kts 148°
2026-05-08 00:25 53.75229 9.89021 2274 ft 136 kts 148°
2026-05-08 00:25 53.74395 9.89747 2099 ft 134 kts 148°
2026-05-08 00:25 53.73569 9.90466 1910 ft 133 kts 148°
2026-05-08 00:25 53.72744 9.91183 1725 ft 133 kts 148°
2026-05-08 00:26 53.71922 9.91898 1543 ft 133 kts 149°
2026-05-08 00:26 53.71102 9.92610 1359 ft 132 kts 149°
2026-05-08 00:26 53.70287 9.93317 1177 ft 132 kts 149°
2026-05-08 00:26 53.69475 9.94022 1005 ft 131 kts 149°
2026-05-08 00:27 53.68662 9.94727 813 ft 131 kts 150°
2026-05-08 00:27 53.67850 9.95431 632 ft 131 kts 150°
2026-05-08 00:27 53.67036 9.96137 460 ft 132 kts 151°
2026-05-08 00:27 53.66213 9.96850 284 ft 134 kts 151°
2026-05-08 00:28 53.65385 9.97566 104 ft 134 kts 152°
2026-05-08 00:28 53.64616 9.98232 58 ft 104 kts 153°
2026-05-08 00:28 53.64122 9.98659 53 ft 55 kts 153°
2026-05-08 00:28 53.63957 9.98896 47 ft 22 kts 114°
2026-05-08 00:29 53.63921 9.98986 50 ft 0 kts 124°
2026-05-08 00:29 53.63913 9.99006 47 ft 8 kts 125°
2026-05-08 00:29 53.63864 9.99115 47 ft 13 kts 127°
2026-05-08 00:29 53.63804 9.99246 48 ft 15 kts 128°
2026-05-08 00:30 53.63739 9.99397 48 ft 17 kts 124°
2026-05-08 00:30 53.63669 9.99561 48 ft 18 kts 127°
2026-05-08 00:30 53.63597 9.99729 50 ft 18 kts 124°
2026-05-08 00:30 53.63524 9.99898 51 ft 18 kts 127°
2026-05-08 00:31 53.63447 10.00077 48 ft 20 kts 126°
2026-05-08 00:31 53.63362 10.00192 48 ft 10 kts 188°
2026-05-08 00:31 53.63327 10.00260 46 ft 10 kts 94°
2026-05-08 00:31 53.63330 10.00329 48 ft 3 kts 84°
2026-05-08 00:32 53.63331 10.00352 48 ft 2 kts 86°
2026-05-08 00:32 53.63331 10.00363 48 ft 0 kts 86°